ODYSSEY (48844 NORAD) Tracking and Keplerian Element Data

This shows tracking and keplerian element data for the satellite.

Feedback or suggestion? Click here.




ElementValue
Catalog48844
NameODYSSEY
Epoch Orbit710
Epoch Day210.32717932
Epoch Year2021
RAAN125.149
Inclination97.4751
Eccentricity0.0038689
Argument of Perigee123.7459
Mean Anonmoly236.7486
Mean Motion15.46611915
Decay Rate4.52E-06
L11 48844U 21051A 21210.32717932 .00000452 00000-0 10759-4 0 9994
L22 48844 97.4751 125.1490 0038689 123.7459 236.7486 15.46611915 7103

Live tracking and technical data element details for ODYSSEY (NORAD 48844). ODYSSEY can be tracked NOW for your location showing map with azimuth and elevation plus other details from your city location.

Track the satellite on the map from your city or location and see movement details for azimuth, elevation, latitude, longitude, range, height, and movement on the map or in text.







IsCatalogInMostPopularTable: catalog: 48844, numindb: 8
Update: records affected: 1



GetName: 48844 ODYSSEY

Hit Count: updated at: Sat, 31 Jul 2021 14:29:05 GMT